Wind_Speed
54 56 57 60 63 67 70 74 76 78 80 82 85 87 89 92 95 98 102 104 106 107 107 107 107 106 106 106 106 105 105 105 104 104 104 104 104 104 104 102 100 98 96 94 93 93 93 93 95 95 95 93 88 81 74 66 57 50 48 51 56 61 65 67 67 66 65 63 63 62 61 61 61 61 61 61 61 61 60 60 60 61 62 63 65 65
53 54 56 58 62 65 69 72 74 76 78 81 84 86 88 90 93 97 100 103 105 106 107 107 107 106 106 106 106 106 105 104 104 104 104 104 105 105 104 102 100 97 95 94 93 93 93 93 94 95 95 95 92 87 81 73 65 56 50 50 52 57 60 63 64 64 64 64 63 62 61 60 60 61 61 60 59 59 59 60 62 63 64 65 66 67
52 53 55 57 60 63 67 69 72 75 78 80 82 85 87 89 92 95 98 101 104 106 107 107 106 106 106 106 106 105 105 104 103 103 103 104 105 105 104 101 99 97 95 94 93 93 93 93 93 93 94 94 93 90 86 81 74 64 56 51 50 52 55 58 59 61 61 62 62 61 59 59 59 60 61 60 59 58 58 60 62 63 64 66 67 67
50 52 54 57 59 62 65 68 71 73 76 78 81 83 86 88 91 94 97 100 102 104 106 106 106 105 105 105 105 105 105 104 103 102 102 103 105 105 104 101 97 95 95 94 93 92 93 93 93 92 91 91 91 91 89 86 81 74 65 56 51 50 51 53 55 57 58 59 60 59 59 59 61 62 62 61 60 59 58 60 62 63 64 65 67 68
49 51 54 55 57 60 63 66 69 71 74 76 78 81 84 87 90 93 96 98 101 103 104 105 105 105 105 105 105 105 104 103 102 101 101 103 105 105 103 100 96 93 93 93 92 92 92 92 92 90 89 88 88 89 90 89 86 82 75 66 58 51 49 49 52 55 58 60 61 62 63 65 66 67 66 64 62 60 60 62 63 63 64 66 68 68
48 50 52 54 56 59 62 64 66 69 72 74 77 80 83 87 89 92 94 96 98 101 103 103 104 104 104 104 104 104 104 103 102 100 100 101 104 105 104 104 98 93 93 92 92 92 92 91 91 89 87 85 85 86 88 89 88 86 82 76 68 60 53 48 48 52 57 61 65 68 69 71 72 71 69 66 63 62 61 63 64 64 64 67 69 70
47 49 50 53 55 58 60 62 65 67 70 73 76 80 83 85 88 90 92 95 97 99 101 102 103 103 103 104 104 104 103 102 101 99 97 99 102 105 106 107 100 93 91 91 92 92 91 91 89 87 86 84 83 84 86 87 88 88 86 83 78 71 63 54 48 48 53 59 65 69 71 72 73 72 69 67 65 62 62 62 64 65 65 67 69 70
45 47 49 51 54 56 58 61 64 67 69 73 75 78 81 83 86 89 91 94 96 98 99 101 101 102 103 103 104 103 103 102 100 97 94 95 99 103 104 102 99 94 90 90 91 91 91 90 88 86 85 83 82 82 83 85 86 87 87 86 84 80 73 64 55 49 49 55 60 65 67 68 68 68 68 67 65 63 62 62 64 66 65 65 66 67
44 46 48 50 52 54 57 60 63 65 68 71 74 77 79 82 85 88 90 92 94 96 98 99 100 101 102 103 103 103 102 101 98 94 91 92 96 102 103 101 98 95 91 89 89 90 90 89 88 86 84 82 81 80 81 83 85 86 86 86 86 83 79 72 62 53 49 51 56 60 60 60 61 62 64 65 64 63 61 62 64 65 64 64 64 64
43 45 47 49 52 54 57 59 61 64 67 70 73 77 80 82 84 86 88 90 93 95 97 98 99 100 101 103 103 103 102 100 96 92 89 89 94 100 103 101 98 95 92 90 89 89 89 88 87 85 83 81 80 80 81 82 83 83 84 84 84 82 80 75 67 57 51 50 55 58 57 55 55 58 60 62 62 62 60 60 61 62 62 62 62 62
42 44 45 48 50 53 56 58 61 63 66 69 72 75 79 82 84 86 87 89 92 94 95 97 99 100 101 102 103 103 103 100 96 91 88 89 93 98 102 100 97 95 93 91 89 88 88 87 86 84 83 81 80 80 80 81 81 81 81 81 80 79 78 75 68 59 51 50 55 60 58 54 54 55 57 58 59 59 58 58 58 58 59 60 60 60
41 43 45 46 49 51 54 57 60 62 64 67 69 72 76 80 83 85 87 89 91 92 94 96 98 99 100 101 102 103 103 101 96 92 89 89 92 96 99 99 97 95 93 91 89 88 87 86 84 83 83 81 81 81 80 80 80 80 79 78 77 76 75 73 68 60 50 48 53 60 61 56 54 54 55 56 57 57 55 55 55 55 55 57 58 59
40 42 44 45 48 50 53 55 57 60 62 65 68 71 75 79 82 84 86 88 90 92 94 95 96 98 100 101 102 103 103 101 97 93 91 90 90 92 95 97 97 95 93 91 89 88 87 86 85 84 83 82 81 81 81 80 79 79 77 76 76 75 74 72 68 60 51 47 50 56 59 57 55 54 54 55 55 55 54 54 54 54 54 54 55 56
39 41 42 44 47 49 52 55 57 59 62 66 70 74 78 80 82 83 85 86 88 91 93 94 96 97 99 100 102 102 103 102 98 94 91 89 87 89 92 96 97 96 94 91 89 88 88 87 85 84 83 82 82 82 81 80 79 78 77 76 75 74 73 72 68 61 53 48 48 50 52 53 52 52 53 53 54 54 54 54 54 54 54 53 54 54
38 40 42 44 46 48 51 54 57 60 63 66 70 73 76 78 80 82 83 84 87 89 91 93 95 97 98 99 101 102 102 100 97 93 89 86 85 86 89 94 97 97 95 92 90 89 88 87 85 84 84 83 83 83 82 81 80 79 78 76 75 74 74 73 69 63 55 50 47 47 46 47 47 47 49 50 51 52 53 53 54 54 54 54 54 54
37 39 41 43 46 48 51 54 56 59 62 65 68 70 72 75 78 80 82 84 86 88 90 92 94 95 97 99 100 101 100 98 94 90 87 85 84 84 87 92 95 95 95 93 91 89 88 86 84 83 84 84 84 84 83 82 81 80 79 77 75 75 75 75 72 66 58 52 49 47 45 44 44 44 46 48 48 49 50 50 50 51 52 53 54 55
37 39 41 43 45 47 50 53 56 58 61 63 66 69 73 76 79 81 82 84 85 87 89 92 93 94 96 97 99 99 99 96 92 88 86 84 83 84 87 91 93 94 95 94 92 89 87 85 83 83 84 84 84 84 84 83 81 80 78 77 75 76 76 77 75 71 63 56 51 49 47 46 45 44 43 44 44 45 45 45 46 47 49 52 55 57
36 38 40 42 44 47 49 52 55 57 60 63 66 69 73 76 79 80 81 82 83 85 88 91 93 95 96 96 97 98 98 95 92 88 85 83 82 83 86 90 92 94 94 94 92 89 87 85 83 83 83 84 84 83 83 82 80 79 78 76 76 76 77 78 77 74 69 62 56 52 48 47 46 46 45 44 43 42 41 40 40 43 48 53 57 60
36 38 40 42 44 46 49 51 54 56 59 62 65 68 71 74 76 78 80 81 82 85 87 90 92 94 95 97 98 99 99 96 93 88 85 83 82 82 85 88 90 92 93 93 92 90 87 85 84 84 84 84 84 83 81 81 79 78 77 76 75 76 77 77 77 76 72 68 62 56 51 47 46 47 47 47 45 44 41 38 37 40 46 53 58 62
35 37 39 41 43 45 48 50 53 56 58 61 64 67 69 72 75 77 79 80 82 84 87 89 91 92 94 97 99 101 101 99 94 89 85 83 82 82 84 86 88 90 92 92 92 90 88 86 85 84 85 85 84 82 81 79 79 78 77 76 75 75 76 76 76 75 73 71 67 61 55 50 47 47 48 48 47 47 45 40 35 35 40 47 53 57
35 37 39 41 43 45 47 50 53 55 58 60 63 65 69 72 74 76 78 80 81 82 85 87 90 92 94 97 100 102 102 99 94 88 85 83 82 82 83 85 87 89 91 92 92 91 89 87 86 85 85 86 86 84 82 80 78 77 77 76 76 75 75 74 74 74 74 73 70 65 58 53 50 49 49 49 49 49 48 45 39 34 34 38 44 48
35 37 39 40 42 45 47 50 52 54 57 59 61 64 68 71 73 75 77 78 79 81 83 86 90 92 95 98 102 103 101 96 90 87 85 83 82 82 83 83 85 87 89 91 92 91 89 88 86 86 86 87 87 86 83 80 78 76 76 76 76 75 74 72 72 72 73 73 71 67 61 55 52 50 50 51 51 51 51 51 47 41 35 35 37 40
35 36 38 40 42 44 46 49 51 53 56 58 61 64 67 70 72 74 76 77 79 81 84 87 90 92 94 99 103 104 100 94 89 87 85 83 83 83 83 82 83 85 87 90 91 91 90 89 87 86 86 86 86 85 83 80 78 76 75 76 76 75 73 72 71 70 70 71 69 67 62 58 54 53 52 53 53 53 53 55 54 51 46 40 38 38
34 36 38 39 41 43 45 48 50 52 55 57 60 63 66 69 72 74 76 77 79 81 83 86 88 90 93 97 102 104 102 96 91 88 86 85 84 84 83 82 82 83 86 88 89 90 90 90 88 86 84 84 84 84 82 80 77 76 75 75 75 74 73 71 70 68 68 67 65 63 61 58 56 55 55 55 54 54 54 54 56 57 55 50 45 42
34 36 37 39 41 43 45 47 49 51 54 56 59 61 64 67 70 72 74 76 77 79 81 83 85 88 92 96 101 104 104 100 96 92 88 86 85 84 83 82 82 83 84 85 87 88 89 89 87 85 83 83 83 83 82 80 78 77 76 76 75 75 73 71 69 67 65 63 62 60 59 58 57 57 57 57 55 54 53 53 54 56 56 54 52 48
34 35 37 39 40 42 44 46 48 51 53 56 58 60 63 66 68 70 71 73 75 77 79 82 85 89 92 95 98 102 104 102 99 95 91 88 85 83 82 82 82 82 82 83 84 85 87 87 86 84 82 82 82 82 82 81 79 78 76 76 76 75 73 71 69 66 64 62 61 60 59 59 58 58 58 57 55 53 52 52 52 52 53 53 53 52
33 35 36 38 40 42 44 46 48 50 52 55 57 60 62 65 67 68 70 72 75 77 80 82 85 88 90 93 96 99 101 101 99 96 93 89 86 83 82 81 81 81 81 81 82 83 85 85 84 83 81 81 81 80 80 79 78 76 76 75 75 74 72 70 68 66 64 62 61 61 60 60 59 58 57 55 53 51 50 50 50 50 50 51 51 52
33 35 36 38 40 41 43 45 47 49 52 54 57 59 61 63 65 68 70 73 75 77 79 82 84 86 87 90 94 98 100 101 99 96 93 90 87 85 83 82 81 81 81 80 81 81 82 83 82 82 81 80 79 77 75 73 72 72 73 73 73 72 71 70 68 66 65 64 63 62 61 60 58 57 55 52 50 49 49 49 49 49 49 50 50 51
32 34 36 37 39 41 43 45 47 49 51 53 56 58 60 62 64 67 70 71 72 74 77 80 83 84 87 90 94 98 101 101 99 96 93 91 88 86 84 82 81 81 81 81 80 79 79 80 80 80 81 79 77 74 71 69 69 70 72 74 74 74 73 71 70 69 68 67 65 63 60 58 56 54 52 50 49 49 48 49 49 49 49 50 50 50
32 33 35 37 39 40 42 44 46 48 50 52 55 57 59 61 64 66 68 69 70 73 76 79 81 84 86 89 93 97 100 100 98 96 94 92 90 88 85 83 82 82 82 81 80 79 78 79 79 79 79 77 75 72 71 71 73 76 78 79 80 79 76 75 74 72 70 67 64 60 57 55 53 52 50 49 49 49 49 50 50 50 50 50 51 51
31 33 35 36 38 40 42 44 46 48 49 51 54 56 57 60 62 64 65 67 69 72 76 78 80 82 84 87 90 94 99 99 98 96 96 93 91 89 86 84 82 82 82 81 81 80 79 79 79 78 77 75 74 73 74 75 77 79 82 84 84 82 79 76 74 71 67 63 59 55 53 51 50 49 48 48 49 50 51 51 51 51 51 51 51 51
31 33 35 36 38 40 42 43 45 47 49 50 52 54 56 58 60 62 63 66 69 71 74 77 79 81 83 86 90 95 98 98 97 97 97 95 92 90 87 85 83 81 81 81 82 82 81 79 78 78 77 77 76 77 78 79 78 77 78 81 82 80 77 74 70 66 62 58 55 52 51 50 49 48 48 49 50 52 53 53 53 52 52 52 51 51
30 32 34 36 38 40 41 43 45 46 48 50 51 53 55 57 59 61 63 65 67 69 72 75 77 79 81 85 90 93 96 95 95 97 98 96 93 90 88 86 83 81 81 81 82 83 82 80 79 79 80 82 82 82 81 79 77 74 74 75 75 74 71 68 65 63 60 57 55 54 53 52 52 51 51 52 53 54 55 55 54 53 53 52 52 51
29 32 34 36 37 39 41 43 44 46 48 49 51 52 54 56 57 59 61 63 65 68 71 73 76 78 80 83 86 89 90 91 93 97 98 95 93 90 88 86 83 81 80 81 82 83 83 82 81 82 85 89 89 85 81 77 75 73 71 70 70 68 66 65 63 62 60 59 58 57 58 58 57 55 54 56 57 58 57 56 55 54 53 52 52 51
29 31 34 36 37 39 41 42 44 46 47 48 50 51 53 54 56 58 60 62 64 67 70 73 75 77 79 81 84 86 87 89 92 95 97 95 93 91 89 86 83 81 80 80 81 83 85 85 84 85 90 94 93 87 82 78 75 72 70 68 67 65 63 62 62 61 61 60 60 61 62 62 61 59 58 59 60 60 58 57 55 54 53 52 52 51
28 31 33 35 37 39 41 42 44 45 47 48 49 51 52 53 55 57 58 60 63 65 68 71 73 75 77 80 83 85 87 89 91 94 95 95 93 91 88 86 84 81 80 79 79 81 84 86 87 88 92 95 93 88 83 79 75 71 68 67 65 62 59 57 57 58 60 62 63 65 66 66 64 63 62 63 63 61 60 58 56 54 53 52 52 51
28 30 33 35 37 39 40 42 44 45 46 47 49 50 51 52 54 55 57 59 61 64 66 68 71 73 74 77 80 83 86 87 89 91 93 93 93 91 88 87 84 81 80 78 77 78 80 84 88 91 93 93 91 86 82 78 74 70 67 65 63 60 58 56 57 59 62 65 67 69 69 68 66 66 65 65 64 62 60 58 56 54 53 52 51 51
27 30 32 35 37 38 40 42 43 45 46 47 48 49 50 51 53 54 56 58 59 62 64 67 69 71 72 74 76 79 82 84 86 89 91 91 90 89 88 87 85 82 80 78 77 76 76 78 83 87 90 90 87 83 78 75 72 69 67 65 63 61 60 59 61 63 65 66 68 69 68 67 66 66 65 65 63 62 60 58 56 54 53 53 52 51
26 29 32 34 36 38 40 42 43 44 46 46 48 48 49 50 52 53 54 56 58 60 62 65 67 69 70 72 73 76 79 82 85 88 89 88 88 88 88 87 85 83 81 79 77 75 74 74 76 81 85 85 82 79 76 73 71 70 68 66 65 64 63 63 63 64 64 64 64 64 64 62 62 63 63 63 62 60 59 57 56 54 53 52 52 51
25 28 31 33 36 38 40 41 43 44 45 46 47 48 48 49 50 52 53 55 56 58 61 63 65 66 68 69 71 73 77 81 84 87 87 87 86 86 87 86 85 83 81 79 77 75 74 71 71 73 76 77 76 75 74 73 72 71 70 68 67 67 67 67 67 66 64 62 61 60 60 58 59 60 61 60 59 59 58 56 55 54 53 52 51 50
24 27 30 32 35 37 39 41 43 44 45 46 46 46 47 48 49 50 51 53 54 56 58 60 62 63 65 66 68 70 73 77 80 83 84 84 84 84 85 85 85 84 82 81 79 76 74 71 69 67 67 69 71 73 74 75 75 74 71 70 70 71 71 72 72 70 66 64 62 61 60 59 58 58 58 58 58 57 56 55 53 52 51 51 50 49
23 26 29 32 34 36 38 40 42 43 44 45 45 46 47 47 48 49 50 51 52 54 56 57 59 61 62 63 65 67 70 73 76 79 81 82 81 81 82 84 84 84 83 82 81 79 76 73 69 67 65 66 67 70 73 76 77 76 74 73 74 74 75 75 75 73 68 65 63 62 61 60 59 59 57 57 57 56 54 53 52 51 50 49 49 48
22 25 28 31 33 36 38 40 41 43 44 44 45 46 46 47 47 48 49 50 51 53 54 56 58 60 61 62 63 65 67 70 73 76 78 79 79 79 80 82 84 84 83 82 82 81 78 75 72 68 66 65 66 68 72 76 78 77 77 77 77 77 78 78 77 74 69 65 62 60 59 58 58 58 57 57 56 55 53 52 51 50 50 49 48 47
21 24 27 30 32 35 37 39 41 42 43 44 44 45 45 46 46 47 48 49 50 51 53 54 56 58 59 60 62 63 65 67 69 72 75 77 77 77 78 80 83 84 83 82 82 82 80 78 74 71 68 65 64 65 69 73 76 78 78 79 78 79 79 80 78 74 69 65 62 59 57 56 55 55 55 55 54 54 53 52 51 51 50 49 48 47
20 23 26 29 31 34 36 38 40 41 43 43 44 44 44 45 45 45 46 47 48 49 50 52 53 54 56 58 59 61 62 64 66 68 71 73 74 75 75 78 80 82 83 82 82 82 82 80 77 74 70 66 63 62 64 69 73 76 78 78 78 79 80 80 77 73 68 65 61 58 56 54 53 53 53 53 53 53 53 53 52 51 50 49 48 48
19 22 25 28 30 33 35 37 39 41 42 43 43 44 44 44 44 45 45 46 46 47 49 50 51 53 54 56 57 59 60 61 63 65 68 70 72 72 73 75 78 80 82 82 82 82 82 81 80 77 73 69 64 62 62 65 69 72 74 75 76 76 77 76 74 71 67 64 60 58 56 54 53 52 52 53 53 53 53 53 53 52 51 50 49 49
19 22 24 27 29 32 34 36 38 40 41 42 43 43 43 43 43 43 44 44 45 46 47 48 50 51 53 55 56 57 58 59 61 63 65 67 69 70 71 72 75 78 80 81 81 81 81 82 81 79 75 71 66 63 62 63 65 67 69 70 71 72 72 72 71 69 66 63 60 57 55 54 54 53 53 53 53 53 53 53 53 52 52 51 51 50
19 21 24 26 28 31 33 35 37 39 40 41 42 42 42 43 43 42 43 43 43 44 45 46 48 49 51 52 54 55 57 58 60 61 63 65 67 68 69 70 71 74 77 79 79 80 81 82 82 80 77 73 69 65 62 62 62 63 65 65 66 68 69 69 69 67 65 62 59 58 57 57 57 56 56 55 54 53 52 52 52 52 53 52 52 51
19 21 23 25 28 30 32 34 36 38 39 40 41 42 42 42 42 42 42 42 42 42 43 44 46 47 48 50 51 53 55 56 58 59 60 62 64 65 66 67 69 71 74 76 77 78 79 81 82 82 80 75 71 67 64 62 61 61 62 62 63 64 66 67 66 65 63 61 60 59 60 62 62 62 60 58 56 54 52 51 51 52 52 52 52 51
19 21 23 25 27 29 31 34 35 37 38 40 40 41 41 41 41 41 41 41 41 41 42 43 44 46 47 49 50 52 53 54 55 57 58 60 62 63 64 65 66 68 70 73 75 76 77 78 81 82 82 78 73 69 66 64 62 61 60 60 60 62 63 64 64 64 62 61 61 61 63 65 67 67 66 63 61 58 55 52 51 52 52 52 51 51
19 21 22 24 26 28 30 32 34 36 37 39 39 40 40 40 40 40 39 39 39 39 40 41 42 43 45 47 49 50 52 53 54 56 57 59 60 60 61 63 64 66 68 70 73 74 75 77 79 81 81 79 76 72 69 66 63 61 59 59 59 60 62 63 63 63 62 62 62 63 64 67 68 69 69 68 67 64 61 56 54 54 54 53 52 52
Wind_Direction
223 221 218 216 214 213 212 211 211 210 209 209 208 207 207 207 206 205 205 204 203 203 203 202 202 201 201 201 202 203 203 204 205 207 208 209 209 209 208 208 208 207 208 209 209 209 209 209 210 212 213 213 214 215 216 217 218 219 219 217 215 215 214 215 215 216 217 218 219 220 220 220 220 220 220 222 223 224 225 225 223 221 220 219 218 217
224 221 218 216 214 213 212 211 210 210 209 208 207 207 207 206 206 205 205 204 203 202 202 202 201 201 201 201 202 202 203 204 205 206 208 209 209 209 208 208 208 207 208 209 209 210 209 210 211 212 213 214 215 216 217 217 218 218 217 215 213 213 214 214 216 217 218 219 219 220 220 220 220 220 220 222 223 224 224 223 222 221 220 220 219 217
224 221 218 216 214 212 211 210 210 209 208 208 207 207 206 206 206 205 205 204 203 202 202 201 201 201 201 201 201 202 202 203 204 206 208 209 209 209 209 208 208 208 208 209 209 210 210 211 212 213 214 215 216 216 217 218 218 218 217 213 211 210 212 213 215 217 219 220 220 221 221 222 222 222 222 223 224 224 225 224 222 220 219 219 219 217
223 221 218 215 213 212 211 210 209 208 208 207 207 206 206 206 206 205 205 204 203 202 201 201 200 200 200 201 201 202 202 203 204 206 207 209 210 209 209 208 207 207 208 209 209 210 210 211 212 213 215 216 216 217 218 219 219 219 218 215 211 209 209 210 213 216 219 220 221 222 223 224 225 225 225 225 225 225 224 223 221 219 219 219 218 216
223 221 218 215 213 211 210 209 208 208 207 207 206 206 206 206 206 205 205 204 203 202 201 200 200 200 200 200 201 201 202 203 203 205 207 209 210 210 208 207 207 207 207 209 210 210 211 211 212 213 215 216 217 217 219 219 220 220 220 219 216 213 211 210 211 213 215 218 220 221 222 224 225 226 225 224 223 223 223 221 219 218 218 218 217 215
223 220 218 215 212 211 210 209 208 207 206 206 205 205 205 205 205 205 205 204 203 202 201 200 199 199 199 200 200 201 201 202 203 205 207 209 210 210 209 209 208 207 207 209 210 210 211 211 212 213 215 216 217 217 218 220 220 221 221 221 221 220 218 217 215 214 214 215 217 219 220 221 222 222 222 221 220 220 221 219 218 217 218 218 216 214
222 220 218 215 212 210 209 208 207 206 206 205 205 205 205 205 205 205 204 204 203 202 201 200 199 199 199 199 200 200 201 202 202 204 206 209 211 211 210 210 208 206 207 208 209 210 211 211 212 213 215 216 217 217 218 219 220 221 221 222 222 223 223 223 222 219 217 216 217 218 219 219 220 219 218 218 217 218 218 218 217 217 218 217 216 214
222 220 217 215 212 210 208 207 206 205 205 204 204 204 204 204 204 204 204 203 203 202 201 200 199 199 198 199 199 200 200 201 202 203 206 209 211 211 210 208 207 206 207 208 209 210 210 211 212 213 215 216 216 216 217 219 220 220 221 222 223 224 225 225 226 225 223 220 219 218 218 218 217 216 215 214 214 214 215 216 216 216 217 217 216 214
221 219 217 214 211 209 207 206 205 205 204 204 203 203 203 203 204 204 204 203 202 201 200 200 199 198 198 198 199 199 200 200 200 202 205 208 211 212 210 208 206 206 207 208 209 209 210 211 212 213 214 215 215 215 217 218 219 220 220 221 223 224 225 225 227 228 228 224 219 216 213 211 210 209 209 210 210 211 213 214 215 215 216 216 215 214
220 218 216 213 210 208 206 205 205 204 204 203 203 202 202 203 203 203 203 203 202 201 200 199 199 198 198 198 198 199 199 198 199 200 203 207 211 212 211 208 207 206 207 208 209 209 209 210 211 212 213 214 214 215 217 218 219 219 220 221 222 223 224 225 226 228 229 224 217 211 206 203 202 203 205 207 209 210 211 213 214 214 215 215 214 214
219 218 216 213 210 208 206 204 204 203 203 203 202 202 202 202 202 202 202 202 202 201 200 199 198 198 198 198 198 198 198 197 197 199 202 206 210 211 211 209 207 206 207 208 208 208 209 209 210 211 212 213 214 215 216 217 218 218 218 219 220 221 222 223 225 227 227 222 214 208 204 201 200 202 204 207 208 209 210 212 213 213 214 214 214 213
218 217 215 212 210 207 206 204 203 202 202 202 201 201 201 201 202 202 202 202 201 201 200 199 198 198 198 198 198 198 197 197 197 199 202 205 209 211 211 209 207 206 207 208 208 208 208 208 209 210 211 212 213 215 216 217 217 217 218 219 220 220 221 222 223 224 224 220 212 208 206 206 205 206 207 209 210 210 210 212 213 214 214 213 213 213
216 215 214 211 209 207 205 204 202 202 201 201 201 201 201 201 201 201 201 201 201 200 199 199 198 198 197 197 197 197 197 196 197 199 202 205 208 210 211 209 207 206 206 207 207 208 208 208 209 209 210 212 214 215 217 217 217 217 218 219 219 219 219 220 221 221 221 218 212 208 209 209 210 211 211 212 212 212 211 212 214 214 214 214 213 214
215 214 213 211 208 206 204 202 201 201 201 201 200 200 200 200 201 201 201 200 200 200 199 199 198 198 197 197 197 197 197 197 197 199 201 204 206 209 211 210 208 206 206 206 207 208 208 209 209 209 210 212 214 215 217 217 217 217 217 218 218 218 217 218 218 219 219 216 212 209 208 209 209 210 211 212 213 213 213 213 214 215 215 215 214 214
214 213 212 210 207 205 203 202 201 200 200 200 200 200 200 199 199 200 200 200 200 200 199 198 198 198 197 197 197 197 197 197 197 198 200 202 205 208 210 210 209 207 206 206 207 208 208 209 209 209 210 212 214 216 217 217 216 216 216 217 217 217 216 217 217 218 217 215 211 208 206 205 204 204 206 208 210 211 212 213 214 215 216 216 216 216
212 211 210 208 206 204 202 201 200 200 200 200 199 199 199 199 199 199 199 199 199 199 199 198 198 198 197 197 197 196 196 196 196 198 199 200 202 205 209 210 209 207 206 206 207 207 208 208 209 209 210 212 214 216 217 217 217 216 216 217 217 216 216 216 217 217 216 214 211 208 206 204 201 200 201 203 205 207 209 210 213 215 216 217 217 217
210 210 209 207 205 203 201 200 199 199 199 199 199 199 198 199 199 199 199 199 198 198 198 198 198 197 197 196 196 196 195 194 194 196 197 197 199 203 208 209 208 206 205 205 206 207 208 208 208 208 209 211 213 216 217 217 217 217 216 217 217 216 216 216 217 217 217 216 213 210 209 206 205 203 203 203 203 205 206 208 211 214 217 218 219 218
209 209 208 206 204 202 201 200 199 199 198 198 198 198 198 198 198 198 198 198 198 198 198 198 197 197 196 196 195 195 194 192 192 193 193 194 196 201 206 208 207 206 205 205 206 206 207 207 207 207 208 210 212 215 217 217 216 216 216 216 216 216 216 217 217 218 219 218 216 213 211 210 210 210 210 210 209 208 209 211 214 218 219 220 219 218
207 207 206 205 203 201 200 199 198 198 198 198 198 198 198 198 198 197 197 197 197 197 198 197 197 197 196 195 194 194 192 191 191 191 190 191 195 200 205 207 207 206 205 205 205 206 206 207 207 207 208 210 212 214 216 217 216 215 215 216 216 216 216 217 218 219 220 220 219 217 215 214 213 214 215 215 214 213 211 213 215 217 217 216 216 215
205 205 205 204 202 200 199 198 198 197 197 197 197 197 197 197 197 197 197 197 197 197 197 197 197 196 196 195 194 192 192 191 191 190 190 190 194 199 204 206 207 206 205 205 205 206 206 206 207 207 208 210 212 215 216 216 216 216 216 216 216 217 217 218 219 220 220 220 220 220 219 218 216 215 215 216 216 215 213 212 211 209 207 207 208 208
203 204 203 202 201 199 198 198 197 197 197 197 197 197 197 197 197 197 197 196 196 196 197 197 197 196 196 195 193 192 192 193 192 191 189 190 194 199 203 206 206 206 206 205 205 205 206 207 207 208 208 210 212 214 215 215 215 215 216 216 217 217 218 219 220 220 221 221 222 223 223 222 221 220 219 218 217 216 215 214 210 204 198 195 197 199
202 202 202 201 200 199 198 197 196 196 196 196 196 196 196 196 196 196 196 196 196 196 196 197 197 196 196 194 193 193 193 193 193 191 189 190 194 199 203 205 206 206 206 206 205 206 206 207 208 208 208 210 212 214 215 215 215 215 215 216 217 218 219 220 220 221 222 223 224 225 225 225 225 225 224 222 221 220 219 217 215 210 203 195 193 194
201 201 200 200 199 198 197 196 195 195 195 195 196 196 196 196 196 196 196 195 195 195 196 196 197 196 196 195 194 194 194 193 192 190 189 190 194 198 201 203 204 206 207 207 206 206 206 207 208 208 209 210 212 214 214 215 215 215 216 216 217 218 219 220 221 222 223 224 225 226 227 228 228 228 227 225 223 222 220 219 217 216 213 208 203 199
199 199 199 198 198 197 196 195 195 194 195 195 195 196 196 196 196 196 195 195 195 195 196 196 197 196 196 196 195 195 195 193 192 191 190 190 192 195 198 200 202 205 207 207 206 206 207 207 208 209 209 210 212 214 214 215 215 216 216 217 217 218 219 220 221 223 224 225 226 228 229 230 230 229 227 225 222 220 218 218 217 216 216 216 214 211
197 197 197 197 196 195 194 194 194 194 194 194 195 195 195 195 195 195 195 194 194 195 196 196 197 197 196 196 196 196 196 195 193 192 192 190 189 191 194 197 201 204 206 207 207 207 207 208 208 209 209 210 212 214 215 215 215 216 217 218 218 218 219 220 222 224 225 227 228 230 230 229 228 226 224 221 218 216 216 217 216 216 216 217 218 217
195 196 196 195 195 194 193 193 193 193 193 193 194 194 195 195 195 195 194 194 194 195 195 196 196 197 197 196 196 196 196 195 194 193 193 191 189 188 191 195 199 203 205 207 207 207 207 208 208 208 209 210 212 214 216 216 216 217 218 219 219 219 219 221 223 225 227 228 229 228 227 226 223 220 217 215 214 214 215 217 217 217 217 217 218 219
193 194 194 193 193 193 192 192 192 192 192 193 193 194 194 194 194 194 194 194 194 194 195 196 197 197 197 197 196 196 195 194 193 194 194 193 190 188 189 193 197 201 203 205 207 207 207 207 207 207 208 210 212 214 216 217 218 219 219 220 221 221 221 221 224 225 226 225 224 222 221 219 216 213 212 211 211 213 215 217 218 218 218 218 218 219
192 192 192 192 191 191 191 191 191 191 192 192 193 193 193 193 193 193 194 194 194 194 195 196 197 197 197 197 196 195 194 194 194 194 195 195 192 188 188 190 194 198 201 203 204 205 206 206 206 206 207 208 210 212 215 218 220 221 221 221 222 222 222 222 222 222 219 217 215 215 214 212 209 208 209 210 211 213 215 216 218 218 218 218 218 218
190 190 190 190 190 190 189 190 190 190 191 192 192 192 193 193 193 193 194 194 194 194 195 196 197 197 197 196 196 195 194 194 194 195 196 196 193 190 188 188 191 194 197 199 200 201 202 203 203 204 205 206 208 209 211 214 217 219 220 221 221 220 220 218 215 212 209 208 208 208 208 207 207 207 209 210 212 214 215 216 217 218 218 217 216 216
188 188 188 188 188 188 188 188 189 190 190 191 191 192 192 192 193 193 194 194 194 194 195 196 197 197 197 197 196 196 196 196 195 195 197 197 195 192 189 187 188 191 193 194 195 197 198 200 201 202 203 204 205 207 208 208 209 212 214 215 216 215 213 209 206 203 202 203 204 205 206 207 208 210 211 213 214 215 215 216 216 217 217 216 214 213
186 186 186 186 186 187 187 187 188 189 189 190 190 191 191 192 192 193 193 193 193 194 195 196 197 197 198 197 197 197 197 197 196 196 197 199 198 194 190 188 187 189 190 191 192 194 196 198 199 200 201 202 204 205 205 203 202 203 204 205 205 204 202 200 199 199 201 202 205 207 209 210 211 212 214 215 215 215 215 214 214 214 214 212 211 210
184 184 183 184 184 185 185 186 187 187 188 189 189 190 191 191 192 192 192 193 194 194 195 196 197 197 198 197 197 198 198 198 197 197 199 200 200 197 193 190 188 188 189 190 191 193 194 195 197 198 198 199 200 201 200 198 196 196 196 196 195 194 195 196 198 201 203 206 209 212 214 214 215 215 215 215 214 213 213 212 212 211 211 209 208 207
182 182 182 182 183 183 184 185 185 186 187 188 188 189 190 190 191 191 192 193 193 194 195 196 197 198 198 198 198 199 199 199 198 198 200 202 202 200 197 193 191 189 189 189 191 192 193 194 195 196 196 196 196 195 194 194 193 193 194 195 195 195 196 199 202 205 208 211 215 217 219 219 218 217 215 214 213 212 211 210 209 209 208 207 207 207
180 180 180 180 181 182 182 183 184 185 186 186 187 188 189 189 190 191 191 192 193 194 194 196 197 198 199 199 200 200 201 200 199 200 202 203 203 202 199 196 193 190 189 189 190 191 192 193 194 195 196 196 195 194 194 194 194 194 196 199 201 203 204 207 209 212 214 217 220 222 223 222 219 217 215 212 211 209 209 208 207 207 207 207 207 208
178 178 178 179 179 180 181 182 182 183 184 185 186 187 188 188 189 190 191 192 192 193 194 195 197 198 199 200 200 201 201 201 200 201 203 204 204 203 202 199 195 192 190 189 189 189 191 193 195 196 198 199 199 198 197 197 196 195 195 197 201 205 209 212 215 217 219 222 224 225 224 222 219 216 213 210 208 208 207 207 206 207 207 208 209 210
176 176 177 177 178 178 179 180 181 182 183 184 185 186 187 188 188 189 190 191 192 193 194 195 197 198 199 200 200 201 201 201 201 202 204 206 206 206 204 202 199 195 192 190 189 189 190 192 194 197 200 202 202 202 200 199 197 195 194 194 197 201 206 212 217 220 221 223 223 223 222 220 216 213 209 207 206 206 206 206 206 207 208 209 211 213
174 174 175 175 176 177 178 179 180 180 182 183 184 185 186 187 187 188 189 190 191 193 194 195 197 198 199 200 201 202 202 202 202 203 205 207 208 208 206 205 202 199 196 193 191 190 191 192 194 197 200 203 204 203 201 200 198 197 195 195 196 198 203 208 213 215 215 215 216 216 215 213 210 207 205 204 204 204 205 205 206 207 209 210 212 213
172 172 173 174 175 175 176 177 178 179 180 181 183 184 185 186 187 188 189 190 191 192 193 195 197 198 199 200 201 202 203 203 204 204 206 208 210 209 208 207 206 203 199 196 193 192 191 192 193 196 199 202 203 203 201 200 199 198 198 198 198 200 203 205 206 206 206 206 206 206 205 204 202 201 201 201 202 204 205 206 207 208 209 211 213 214
170 171 172 172 173 174 175 176 177 178 179 180 181 183 184 185 186 187 188 189 190 192 193 195 196 198 199 200 201 202 203 204 204 205 207 209 211 211 210 209 208 206 203 199 195 193 193 192 193 194 197 200 202 203 202 201 200 200 201 202 202 204 206 207 205 203 201 201 200 200 199 199 199 199 200 201 203 204 205 206 207 209 210 212 213 214
167 169 170 171 172 173 174 174 176 177 178 179 180 181 182 183 185 186 187 188 190 191 193 194 196 197 199 200 201 202 203 203 204 206 208 210 212 212 211 211 210 209 206 202 198 196 195 194 193 194 195 198 200 202 203 203 203 203 204 204 205 207 209 209 208 205 202 200 199 198 198 198 198 199 200 201 203 205 206 207 208 209 210 212 213 214
165 167 168 169 170 171 172 173 174 175 176 178 179 180 181 182 184 185 186 188 189 191 192 194 195 197 198 200 201 202 203 204 205 206 208 210 212 213 212 212 211 211 209 205 201 198 196 195 195 195 195 196 198 200 202 203 204 205 205 206 208 210 211 211 209 206 203 200 198 198 198 198 199 199 200 202 203 205 206 207 208 209 211 212 213 214
163 165 167 168 169 170 171 172 173 174 175 176 177 178 180 181 183 184 185 187 188 190 192 193 195 197 198 199 201 202 203 204 205 207 208 210 212 213 213 213 213 212 211 208 204 201 198 197 196 196 195 195 196 197 199 202 204 205 205 206 208 209 210 209 208 206 202 200 199 199 199 200 200 200 201 203 205 206 207 207 208 209 211 212 213 214
161 164 165 167 168 169 170 171 172 173 174 175 176 177 179 180 181 183 184 186 188 189 191 193 195 196 198 199 200 201 203 204 205 207 208 210 212 213 213 213 213 213 213 211 208 205 201 199 198 197 196 195 195 195 196 198 201 202 203 205 206 206 206 207 206 204 202 200 201 202 202 203 203 204 204 205 206 207 208 208 209 210 211 212 213 214
159 162 164 166 167 168 169 170 171 172 173 174 175 176 177 179 180 182 183 185 187 189 190 192 194 196 197 199 200 201 202 203 205 206 208 210 212 213 214 214 214 214 214 214 212 209 205 202 201 199 198 197 196 196 195 196 197 199 200 202 203 204 204 205 204 203 202 202 203 204 205 206 206 207 207 208 208 209 209 210 210 211 212 213 214 215
157 160 163 164 166 167 168 169 170 171 172 173 174 175 176 178 179 181 182 184 186 188 190 192 194 195 197 199 200 201 202 203 204 206 207 209 211 213 213 214 214 215 215 215 214 212 209 206 203 202 200 199 199 198 196 195 195 196 197 199 200 202 203 204 203 202 203 203 204 205 206 207 207 208 209 209 210 211 211 212 212 213 214 215 215 216
155 159 161 163 165 166 167 168 169 170 171 172 173 174 175 176 178 180 181 183 185 187 189 192 193 195 197 199 200 201 202 203 204 205 207 209 210 212 213 213 214 214 215 216 216 215 212 209 206 205 203 202 201 200 198 196 195 194 195 197 198 200 201 202 202 202 203 204 205 206 206 207 208 209 209 210 211 213 213 214 214 215 216 216 216 217
153 157 160 162 164 165 166 167 168 169 170 171 172 173 174 175 177 179 180 182 184 187 189 191 193 195 197 199 200 201 202 203 204 205 207 208 210 211 212 213 213 214 215 216 217 217 215 212 209 207 206 205 203 202 199 197 195 194 194 196 197 199 200 200 201 202 203 203 204 205 207 209 210 211 211 212 212 213 215 216 216 217 217 217 217 217
151 155 159 161 163 164 165 167 168 169 170 171 171 172 173 175 176 177 179 182 184 186 188 190 193 195 197 198 200 201 202 203 204 205 206 208 209 211 212 213 213 213 214 215 217 217 216 214 212 210 208 206 205 203 200 197 195 194 193 194 196 197 199 200 201 201 202 202 203 204 207 210 212 213 213 213 213 213 214 216 217 218 218 218 218 217
149 153 157 160 162 164 165 166 167 168 169 170 171 172 173 174 175 177 178 181 183 185 188 190 193 195 197 199 200 202 203 203 204 205 206 208 209 210 212 212 213 213 214 215 217 217 217 216 213 211 210 208 206 204 201 198 196 194 193 193 195 196 197 199 200 200 201 202 202 204 206 209 211 213 213 213 212 211 211 212 214 216 218 218 218 218
148 151 155 158 161 163 164 166 167 168 169 169 170 171 172 173 174 176 178 179 182 184 187 190 192 195 197 199 201 202 203 204 205 206 207 208 209 210 211 212 213 213 214 215 217 218 218 217 216 213 211 209 207 205 202 200 197 195 194 193 194 195 196 197 198 199 200 201 202 203 205 207 209 210 211 211 211 209 207 206 207 211 214 216 217 217
146 150 154 157 160 162 164 165 166 167 168 169 170 171 171 172 173 175 177 179 181 184 187 190 192 194 197 199 201 202 203 204 205 206 207 208 209 210 211 212 213 214 214 216 217 219 219 219 218 216 214 211 209 206 204 202 200 198 196 195 194 195 195 196 197 198 199 200 201 202 204 205 206 206 207 209 209 208 205 204 206 209 211 212 213 214
Height
5335 5338 5342 5346 5351 5355 5360 5364 5369 5376 5382 5388 5395 5401 5407 5413 5420 5426 5433 5441 5449 5457 5464 5472 5480 5487 5495 5502 5509 5516 5523 5529 5536 5542 5547 5553 5558 5564 5570 5576 5583 5590 5596 5602 5606 5611 5616 5621 5624 5627 5632 5637 5641 5646 5650 5654 5657 5661 5663 5666 5668 5672 5675 5679 5683 5687 5690 5693 5696 5699 5703 5706 5709 5713 5717 5718 5721 5723 5726 5729 5733 5737 5740 5744 5743 5742
5333 5336 5340 5344 5349 5353 5357 5362 5367 5374 5380 5386 5392 5399 5405 5411 5417 5423 5430 5437 5444 5452 5460 5468 5476 5483 5491 5498 5505 5512 5519 5525 5532 5538 5544 5549 5554 5560 5566 5572 5579 5587 5593 5598 5603 5607 5612 5616 5620 5624 5629 5633 5638 5643 5647 5651 5655 5658 5661 5664 5666 5669 5673 5677 5680 5683 5687 5689 5693 5696 5699 5704 5707 5711 5713 5715 5717 5720 5724 5727 5730 5733 5735 5737 5736 5736
5331 5335 5338 5342 5346 5350 5355 5360 5366 5372 5377 5384 5390 5396 5402 5408 5414 5420 5427 5433 5440 5447 5455 5463 5472 5480 5487 5494 5501 5508 5515 5522 5528 5535 5540 5546 5551 5556 5562 5569 5577 5584 5590 5594 5599 5604 5608 5612 5617 5622 5626 5631 5635 5640 5644 5647 5652 5656 5659 5662 5665 5667 5671 5674 5678 5682 5685 5688 5691 5694 5697 5700 5704 5707 5710 5712 5715 5717 5720 5722 5725 5729 5732 5732 5732 5734
5329 5332 5336 5339 5343 5348 5353 5358 5364 5369 5375 5381 5387 5393 5400 5406 5411 5417 5423 5430 5437 5444 5452 5460 5468 5477 5484 5492 5498 5506 5512 5519 5526 5532 5537 5542 5547 5552 5558 5566 5574 5580 5586 5591 5596 5600 5605 5609 5614 5619 5623 5627 5632 5637 5641 5644 5648 5652 5656 5659 5662 5665 5668 5672 5677 5682 5685 5688 5691 5694 5698 5701 5703 5705 5707 5710 5713 5716 5718 5719 5720 5723 5727 5729 5730 5732
5327 5330 5333 5337 5342 5347 5351 5356 5361 5367 5372 5379 5385 5391 5397 5402 5408 5414 5420 5427 5434 5442 5450 5458 5466 5474 5482 5489 5496 5503 5510 5516 5523 5529 5534 5539 5544 5549 5555 5563 5570 5576 5582 5588 5592 5597 5601 5606 5611 5616 5619 5624 5629 5634 5637 5641 5644 5649 5653 5656 5659 5662 5665 5668 5672 5677 5682 5687 5691 5695 5697 5700 5702 5704 5706 5709 5712 5714 5716 5716 5717 5720 5724 5725 5726 5728
5325 5328 5332 5336 5340 5345 5349 5354 5360 5365 5371 5377 5382 5388 5394 5400 5406 5412 5419 5426 5433 5441 5449 5456 5464 5472 5479 5486 5492 5500 5507 5513 5520 5526 5532 5537 5541 5546 5552 5559 5566 5573 5580 5585 5589 5594 5598 5602 5607 5613 5618 5622 5626 5631 5634 5637 5641 5646 5650 5653 5656 5659 5662 5665 5668 5672 5676 5682 5687 5691 5694 5697 5699 5701 5703 5706 5709 5711 5712 5712 5714 5718 5722 5721 5722 5726
5323 5326 5330 5334 5338 5342 5347 5353 5358 5363 5369 5374 5379 5385 5391 5397 5403 5410 5417 5425 5432 5439 5446 5453 5461 5468 5476 5483 5490 5497 5503 5511 5517 5524 5530 5534 5538 5542 5548 5556 5563 5570 5577 5582 5586 5590 5594 5599 5605 5611 5616 5619 5623 5627 5631 5634 5638 5642 5647 5651 5653 5657 5660 5663 5666 5668 5672 5675 5680 5684 5688 5692 5695 5697 5700 5702 5705 5707 5709 5710 5712 5715 5719 5718 5720 5723
5322 5325 5329 5333 5337 5341 5346 5351 5356 5360 5366 5371 5377 5382 5388 5395 5401 5408 5414 5420 5427 5435 5442 5450 5458 5465 5472 5480 5487 5494 5501 5508 5516 5522 5528 5532 5535 5539 5545 5552 5560 5567 5573 5578 5582 5586 5592 5597 5602 5608 5613 5616 5621 5625 5628 5631 5635 5639 5644 5647 5650 5654 5657 5661 5664 5666 5669 5672 5675 5678 5682 5686 5690 5692 5695 5698 5701 5704 5707 5709 5710 5711 5714 5715 5718 5722
5321 5324 5327 5331 5335 5340 5345 5349 5353 5358 5363 5368 5374 5381 5387 5393 5399 5405 5411 5417 5424 5432 5440 5448 5455 5462 5470 5476 5483 5490 5498 5506 5513 5520 5526 5530 5532 5536 5542 5549 5557 5564 5569 5573 5578 5583 5589 5594 5599 5604 5610 5614 5618 5623 5625 5627 5631 5636 5640 5644 5647 5651 5655 5658 5662 5664 5667 5669 5672 5674 5678 5682 5685 5688 5692 5695 5698 5701 5704 5706 5707 5708 5711 5713 5717 5720
5319 5322 5325 5329 5333 5338 5342 5347 5352 5356 5361 5367 5372 5378 5384 5390 5396 5402 5409 5416 5424 5431 5438 5445 5452 5459 5466 5472 5479 5486 5493 5502 5510 5517 5522 5526 5529 5533 5538 5546 5554 5561 5566 5570 5575 5581 5586 5591 5597 5602 5608 5612 5616 5619 5621 5624 5627 5632 5637 5641 5644 5648 5652 5656 5660 5662 5665 5667 5669 5672 5676 5679 5682 5686 5690 5693 5695 5697 5702 5702 5704 5706 5709 5712 5715 5719
5317 5321 5324 5328 5332 5336 5340 5345 5349 5354 5359 5365 5370 5376 5381 5387 5393 5400 5407 5414 5422 5428 5435 5442 5448 5455 5462 5469 5476 5482 5490 5497 5505 5512 5518 5522 5526 5530 5535 5542 5550 5557 5562 5567 5572 5578 5583 5589 5594 5600 5605 5609 5612 5615 5617 5621 5625 5629 5633 5638 5642 5646 5650 5654 5658 5661 5663 5664 5666 5670 5674 5677 5680 5684 5687 5690 5692 5694 5697 5699 5701 5704 5707 5710 5713 5717
5316 5319 5323 5327 5331 5335 5339 5344 5348 5353 5358 5364 5369 5375 5381 5386 5392 5398 5404 5411 5418 5425 5432 5439 5445 5452 5458 5466 5472 5479 5487 5494 5502 5509 5514 5519 5523 5527 5532 5539 5547 5554 5560 5565 5570 5575 5581 5586 5592 5597 5601 5605 5608 5611 5614 5618 5622 5627 5631 5635 5639 5643 5647 5652 5656 5659 5661 5662 5664 5668 5672 5676 5678 5681 5684 5686 5688 5692 5695 5697 5699 5702 5705 5708 5712 5715
5315 5318 5321 5325 5329 5333 5338 5342 5348 5353 5358 5363 5368 5374 5379 5385 5390 5396 5401 5407 5415 5422 5430 5436 5443 5449 5455 5462 5468 5476 5483 5491 5499 5505 5510 5516 5521 5526 5530 5537 5544 5552 5557 5563 5568 5573 5578 5582 5588 5594 5598 5602 5605 5608 5612 5616 5621 5625 5629 5633 5637 5640 5645 5649 5653 5656 5659 5660 5662 5664 5668 5672 5676 5679 5682 5684 5686 5689 5694 5697 5698 5700 5703 5706 5710 5713
5314 5317 5320 5324 5328 5332 5336 5341 5346 5351 5356 5360 5364 5369 5373 5379 5386 5393 5400 5407 5413 5420 5427 5433 5440 5447 5453 5459 5466 5473 5481 5488 5495 5502 5507 5513 5518 5523 5527 5533 5540 5547 5554 5560 5565 5570 5575 5579 5585 5591 5597 5600 5602 5606 5610 5614 5618 5623 5626 5630 5634 5637 5642 5646 5650 5653 5656 5658 5660 5661 5663 5668 5672 5677 5680 5682 5685 5688 5692 5695 5697 5699 5701 5704 5708 5711
5313 5316 5319 5323 5327 5331 5335 5340 5344 5348 5352 5356 5361 5365 5370 5377 5384 5392 5399 5406 5413 5419 5425 5431 5437 5443 5450 5457 5464 5471 5478 5486 5493 5500 5507 5512 5516 5520 5523 5529 5536 5543 5551 5557 5562 5567 5572 5577 5582 5588 5594 5597 5601 5604 5607 5612 5615 5619 5623 5627 5631 5635 5639 5643 5647 5650 5653 5656 5658 5660 5662 5666 5670 5673 5677 5680 5683 5687 5690 5693 5695 5697 5700 5703 5706 5709
5312 5315 5318 5321 5325 5329 5334 5338 5342 5346 5350 5355 5361 5367 5373 5380 5386 5392 5397 5404 5410 5417 5423 5430 5435 5441 5448 5456 5462 5468 5477 5485 5493 5500 5505 5511 5515 5518 5521 5526 5533 5541 5548 5554 5559 5564 5569 5574 5579 5585 5590 5595 5598 5601 5604 5607 5612 5616 5621 5624 5628 5632 5636 5640 5643 5647 5651 5653 5656 5658 5661 5664 5667 5671 5675 5678 5681 5684 5687 5690 5693 5697 5699 5702 5704 5707
5311 5314 5317 5321 5324 5328 5332 5337 5341 5345 5350 5355 5361 5367 5373 5379 5384 5389 5395 5400 5407 5414 5421 5427 5434 5441 5447 5453 5460 5467 5475 5483 5492 5498 5504 5508 5512 5516 5519 5524 5531 5539 5545 5550 5555 5561 5566 5572 5576 5582 5587 5592 5595 5598 5601 5604 5608 5613 5618 5622 5625 5629 5632 5636 5640 5644 5647 5651 5654 5657 5660 5663 5666 5668 5671 5675 5678 5681 5684 5688 5692 5696 5699 5702 5703 5705
5310 5313 5316 5320 5324 5327 5332 5336 5340 5344 5349 5354 5359 5364 5369 5374 5379 5385 5392 5399 5406 5413 5419 5424 5431 5438 5446 5453 5461 5468 5474 5481 5488 5495 5501 5505 5509 5513 5517 5521 5527 5535 5541 5547 5552 5557 5563 5568 5573 5578 5584 5588 5592 5595 5598 5602 5606 5611 5615 5618 5622 5626 5630 5633 5637 5641 5645 5648 5652 5655 5657 5661 5664 5667 5669 5672 5676 5679 5682 5685 5689 5693 5698 5702 5703 5704
5309 5312 5316 5319 5322 5326 5331 5335 5339 5344 5349 5353 5358 5363 5368 5373 5379 5385 5392 5399 5406 5412 5418 5424 5430 5437 5443 5451 5458 5465 5471 5478 5485 5491 5497 5502 5507 5511 5514 5519 5525 5531 5538 5544 5550 5555 5561 5566 5571 5576 5581 5584 5588 5592 5595 5599 5603 5608 5612 5616 5619 5623 5627 5630 5634 5638 5642 5646 5649 5652 5655 5659 5662 5665 5668 5671 5674 5677 5680 5683 5686 5690 5694 5697 5700 5701
5309 5312 5315 5318 5322 5326 5330 5334 5338 5343 5348 5352 5357 5362 5368 5374 5380 5386 5392 5398 5404 5410 5416 5423 5430 5437 5443 5449 5454 5460 5467 5474 5480 5487 5492 5498 5503 5507 5511 5517 5523 5529 5535 5541 5547 5552 5557 5562 5567 5572 5577 5581 5584 5588 5592 5596 5600 5604 5609 5613 5617 5620 5624 5627 5631 5635 5639 5643 5647 5650 5654 5657 5661 5664 5667 5670 5672 5676 5679 5682 5684 5686 5688 5691 5695 5698
5309 5312 5314 5318 5322 5326 5330 5334 5338 5342 5347 5352 5357 5362 5367 5372 5378 5384 5390 5397 5403 5409 5415 5422 5429 5435 5442 5448 5454 5459 5465 5470 5476 5483 5489 5495 5500 5505 5509 5514 5520 5525 5531 5537 5543 5548 5554 5559 5564 5568 5573 5578 5581 5584 5589 5592 5597 5602 5606 5611 5615 5617 5620 5624 5628 5632 5637 5640 5644 5647 5652 5655 5659 5662 5666 5668 5671 5674 5677 5680 5683 5685 5687 5690 5693 5697
5308 5311 5314 5318 5322 5325 5329 5333 5337 5342 5347 5352 5357 5362 5366 5371 5376 5382 5388 5395 5402 5409 5416 5422 5427 5432 5438 5444 5451 5456 5461 5467 5474 5480 5487 5493 5498 5502 5507 5512 5517 5522 5528 5534 5540 5546 5552 5557 5561 5565 5570 5574 5577 5581 5585 5589 5594 5599 5604 5608 5612 5616 5618 5622 5626 5629 5633 5637 5641 5645 5649 5653 5657 5661 5663 5667 5670 5672 5675 5678 5682 5685 5687 5689 5692 5696
5308 5311 5314 5317 5321 5325 5328 5333 5337 5342 5346 5351 5356 5360 5365 5371 5376 5382 5388 5395 5401 5407 5413 5417 5422 5428 5435 5441 5447 5452 5457 5463 5470 5477 5484 5491 5496 5501 5505 5510 5515 5520 5525 5531 5538 5544 5549 5553 5558 5563 5567 5571 5574 5577 5582 5585 5591 5597 5602 5605 5609 5614 5617 5620 5623 5627 5631 5635 5638 5642 5646 5650 5654 5658 5661 5665 5668 5670 5672 5676 5680 5683 5686 5689 5692 5695
5308 5311 5314 5317 5321 5324 5329 5333 5337 5341 5346 5350 5354 5358 5363 5369 5374 5380 5387 5392 5398 5403 5408 5413 5419 5427 5434 5440 5446 5451 5456 5462 5468 5475 5482 5488 5493 5498 5503 5509 5514 5518 5523 5529 5535 5541 5546 5551 5555 5560 5565 5569 5572 5575 5580 5583 5588 5594 5599 5602 5607 5611 5614 5618 5621 5624 5628 5632 5636 5640 5644 5647 5651 5655 5659 5662 5665 5667 5671 5674 5677 5680 5684 5687 5690 5693
5307 5310 5313 5317 5320 5324 5328 5332 5337 5341 5345 5349 5353 5358 5363 5368 5373 5378 5384 5390 5396 5402 5407 5413 5420 5427 5433 5438 5444 5450 5456 5462 5468 5476 5482 5486 5490 5496 5502 5507 5512 5516 5521 5526 5532 5537 5543 5548 5553 5558 5563 5568 5571 5574 5578 5582 5587 5592 5596 5600 5604 5608 5612 5616 5619 5622 5626 5630 5634 5637 5641 5645 5648 5652 5656 5659 5661 5664 5668 5672 5675 5677 5681 5685 5689 5692
5307 5310 5313 5317 5321 5324 5328 5332 5336 5340 5344 5349 5353 5358 5363 5368 5373 5379 5385 5391 5397 5402 5408 5414 5420 5425 5428 5434 5440 5447 5454 5461 5468 5475 5480 5484 5488 5494 5500 5505 5509 5513 5518 5524 5530 5535 5541 5547 5552 5557 5562 5566 5570 5574 5577 5580 5584 5589 5594 5598 5602 5606 5610 5614 5617 5620 5624 5628 5631 5635 5638 5642 5645 5649 5652 5655 5658 5662 5665 5669 5672 5675 5678 5682 5687 5691
5308 5311 5314 5317 5321 5324 5328 5332 5336 5340 5344 5348 5353 5357 5362 5367 5373 5379 5385 5391 5396 5401 5407 5412 5416 5420 5425 5432 5439 5446 5452 5460 5466 5471 5476 5481 5487 5492 5498 5502 5507 5512 5517 5523 5528 5533 5538 5544 5550 5555 5559 5564 5567 5572 5576 5579 5582 5586 5591 5595 5599 5604 5609 5613 5616 5619 5622 5626 5629 5632 5636 5639 5643 5646 5650 5652 5656 5659 5662 5666 5670 5673 5676 5679 5684 5688
5308 5311 5314 5317 5321 5324 5328 5332 5336 5340 5344 5348 5352 5357 5362 5367 5373 5378 5383 5388 5393 5398 5404 5408 5413 5419 5426 5433 5439 5445 5451 5458 5463 5468 5472 5478 5484 5489 5494 5499 5505 5511 5516 5521 5526 5531 5536 5542 5547 5552 5557 5562 5566 5570 5574 5578 5580 5583 5588 5593 5597 5601 5606 5611 5614 5617 5620 5623 5626 5629 5633 5637 5640 5644 5647 5650 5654 5657 5660 5663 5667 5671 5674 5677 5681 5685
5308 5311 5314 5317 5321 5325 5328 5332 5336 5340 5344 5348 5353 5357 5362 5367 5373 5377 5381 5386 5392 5397 5403 5408 5413 5420 5427 5432 5437 5442 5449 5455 5460 5464 5470 5475 5481 5486 5491 5496 5502 5508 5513 5517 5522 5528 5534 5540 5545 5550 5555 5559 5564 5568 5572 5577 5580 5582 5585 5591 5595 5598 5603 5607 5612 5615 5617 5619 5622 5626 5630 5634 5638 5642 5645 5648 5651 5655 5658 5661 5665 5669 5672 5675 5678 5681
5309 5312 5315 5318 5321 5325 5328 5332 5336 5340 5344 5348 5353 5357 5362 5367 5372 5376 5381 5387 5393 5398 5403 5408 5414 5419 5424 5429 5434 5441 5447 5452 5457 5462 5467 5472 5477 5482 5488 5494 5499 5505 5510 5515 5520 5526 5532 5537 5542 5548 5552 5557 5562 5567 5571 5575 5578 5580 5582 5587 5591 5595 5599 5604 5608 5610 5612 5615 5619 5623 5627 5631 5635 5639 5642 5646 5649 5652 5656 5659 5663 5666 5669 5672 5675 5678
5309 5312 5315 5318 5322 5325 5329 5332 5336 5340 5344 5349 5353 5358 5362 5367 5371 5376 5382 5388 5393 5397 5402 5407 5413 5418 5423 5429 5435 5442 5446 5450 5455 5460 5465 5470 5474 5480 5485 5491 5496 5501 5507 5512 5517 5523 5528 5533 5539 5545 5550 5555 5560 5565 5569 5573 5576 5577 5579 5583 5587 5592 5596 5599 5602 5605 5608 5612 5616 5620 5624 5628 5632 5636 5640 5643 5647 5650 5653 5657 5660 5663 5666 5669 5672 5675
5310 5312 5316 5318 5322 5325 5329 5332 5337 5341 5345 5349 5354 5358 5362 5367 5372 5377 5382 5387 5392 5396 5401 5406 5412 5417 5422 5428 5434 5439 5442 5447 5452 5458 5463 5466 5471 5477 5482 5487 5492 5497 5503 5508 5513 5518 5524 5529 5536 5542 5547 5553 5558 5563 5567 5570 5572 5575 5577 5580 5584 5588 5591 5594 5597 5600 5605 5609 5613 5617 5622 5626 5630 5633 5637 5641 5645 5648 5650 5653 5657 5660 5663 5667 5670 5673
5311 5313 5316 5319 5322 5326 5329 5333 5337 5341 5345 5349 5354 5358 5362 5367 5372 5376 5381 5385 5390 5395 5401 5407 5411 5416 5421 5426 5430 5434 5438 5445 5451 5456 5459 5463 5468 5474 5479 5484 5489 5494 5500 5506 5510 5515 5521 5527 5533 5540 5546 5551 5556 5560 5563 5566 5569 5571 5574 5577 5580 5583 5586 5590 5594 5598 5602 5606 5611 5615 5619 5623 5627 5631 5635 5638 5642 5645 5647 5651 5654 5657 5661 5665 5668 5671
5312 5314 5317 5320 5323 5326 5330 5333 5337 5341 5345 5350 5354 5358 5362 5367 5371 5375 5380 5385 5390 5395 5401 5406 5411 5416 5420 5424 5429 5434 5440 5446 5450 5454 5457 5460 5465 5471 5477 5482 5487 5492 5498 5503 5509 5514 5521 5527 5532 5538 5544 5548 5552 5556 5559 5562 5564 5567 5570 5573 5577 5580 5584 5588 5592 5596 5600 5604 5608 5612 5616 5620 5624 5628 5632 5635 5639 5642 5645 5648 5652 5655 5659 5662 5666 5668
5313 5315 5318 5321 5324 5327 5330 5334 5338 5342 5346 5350 5354 5358 5362 5367 5371 5375 5380 5385 5390 5395 5399 5404 5409 5414 5418 5423 5429 5435 5440 5445 5448 5452 5455 5458 5463 5469 5474 5481 5486 5490 5495 5501 5506 5512 5518 5524 5530 5536 5541 5544 5548 5551 5555 5558 5560 5562 5566 5571 5575 5579 5583 5587 5591 5594 5598 5602 5605 5609 5613 5617 5621 5625 5629 5632 5636 5640 5643 5646 5650 5653 5657 5661 5664 5666
5314 5317 5319 5322 5325 5328 5331 5335 5338 5342 5346 5350 5354 5358 5362 5367 5371 5375 5380 5384 5389 5393 5398 5403 5407 5412 5417 5422 5427 5432 5436 5440 5444 5449 5453 5457 5462 5467 5472 5478 5483 5488 5492 5498 5503 5508 5514 5519 5525 5531 5536 5539 5543 5547 5551 5554 5557 5559 5563 5568 5573 5577 5581 5585 5588 5592 5596 5599 5603 5606 5609 5613 5617 5621 5625 5629 5633 5637 5640 5644 5647 5651 5655 5659 5662 5665
5315 5317 5320 5322 5325 5328 5332 5335 5339 5343 5347 5350 5354 5358 5362 5367 5371 5375 5379 5384 5388 5393 5398 5403 5407 5412 5417 5421 5426 5430 5433 5437 5442 5447 5452 5455 5459 5464 5470 5475 5481 5486 5490 5495 5500 5505 5510 5516 5521 5527 5532 5535 5538 5542 5546 5550 5553 5557 5561 5566 5571 5575 5579 5583 5587 5590 5593 5597 5600 5603 5607 5610 5613 5617 5622 5626 5630 5634 5637 5641 5644 5648 5652 5655 5658 5661
5317 5319 5321 5324 5327 5329 5333 5336 5340 5343 5347 5351 5355 5359 5363 5367 5371 5375 5379 5384 5388 5393 5398 5402 5407 5412 5417 5422 5426 5430 5434 5439 5444 5448 5451 5453 5457 5462 5467 5472 5478 5483 5488 5492 5497 5502 5507 5513 5518 5523 5528 5532 5535 5538 5542 5546 5550 5554 5558 5563 5568 5573 5577 5581 5585 5588 5592 5595 5598 5602 5605 5608 5611 5614 5618 5623 5627 5631 5634 5638 5641 5645 5649 5652 5655 5657
5318 5320 5322 5325 5328 5331 5334 5337 5341 5344 5347 5351 5355 5359 5363 5367 5371 5375 5380 5384 5388 5393 5397 5402 5407 5411 5416 5420 5425 5430 5435 5440 5444 5447 5450 5452 5456 5460 5465 5470 5476 5481 5486 5490 5494 5499 5505 5510 5514 5519 5524 5528 5532 5536 5539 5543 5547 5551 5555 5561 5567 5572 5575 5579 5583 5587 5590 5593 5597 5601 5604 5607 5610 5612 5616 5620 5624 5628 5632 5635 5639 5642 5646 5649 5652 5656
5320 5322 5324 5326 5329 5332 5335 5338 5341 5344 5348 5352 5356 5359 5363 5367 5372 5376 5380 5384 5388 5392 5397 5401 5406 5410 5414 5419 5423 5428 5433 5437 5441 5444 5448 5451 5454 5458 5463 5468 5473 5478 5482 5487 5492 5497 5502 5507 5511 5515 5520 5525 5530 5533 5537 5540 5544 5548 5553 5558 5564 5569 5572 5577 5581 5584 5587 5590 5594 5598 5602 5605 5608 5611 5615 5618 5622 5625 5629 5633 5637 5640 5643 5647 5650 5654
5321 5323 5325 5328 5330 5333 5336 5339 5342 5345 5349 5352 5357 5360 5364 5368 5372 5377 5381 5385 5389 5393 5397 5402 5406 5410 5414 5418 5422 5427 5431 5435 5439 5443 5447 5450 5453 5456 5461 5466 5470 5475 5479 5485 5490 5496 5501 5505 5509 5514 5518 5523 5528 5531 5535 5538 5542 5547 5551 5556 5561 5565 5569 5574 5578 5582 5585 5588 5591 5595 5599 5602 5606 5609 5612 5616 5619 5623 5627 5631 5635 5638 5642 5645 5648 5651
5323 5325 5327 5329 5332 5334 5337 5340 5343 5346 5350 5353 5357 5361 5365 5369 5373 5377 5381 5385 5390 5394 5398 5402 5407 5411 5415 5419 5422 5426 5430 5434 5438 5442 5446 5449 5452 5455 5460 5464 5468 5472 5477 5482 5487 5493 5498 5503 5507 5512 5517 5522 5526 5529 5533 5537 5541 5545 5549 5554 5558 5562 5567 5572 5577 5580 5583 5586 5589 5593 5596 5600 5604 5607 5610 5613 5617 5621 5624 5629 5633 5636 5640 5643 5646 5649
5325 5327 5329 5331 5333 5336 5338 5341 5344 5348 5351 5355 5358 5362 5366 5369 5373 5377 5381 5385 5389 5393 5397 5402 5406 5410 5413 5417 5422 5426 5429 5433 5437 5441 5445 5447 5451 5454 5458 5463 5467 5471 5475 5480 5485 5490 5495 5501 5506 5511 5515 5519 5523 5527 5531 5535 5539 5544 5549 5552 5557 5561 5566 5571 5575 5578 5581 5584 5588 5591 5595 5598 5602 5605 5608 5612 5615 5619 5622 5627 5631 5634 5637 5641 5644 5647
5327 5329 5331 5333 5335 5337 5340 5343 5346 5349 5352 5356 5359 5363 5367 5370 5374 5378 5382 5385 5389 5393 5397 5401 5404 5408 5412 5416 5420 5424 5428 5432 5436 5439 5443 5447 5450 5453 5457 5462 5466 5470 5473 5477 5482 5488 5493 5499 5504 5509 5513 5517 5522 5525 5529 5533 5537 5542 5547 5551 5555 5559 5563 5567 5571 5575 5579 5583 5586 5590 5594 5597 5600 5604 5607 5611 5614 5617 5621 5625 5628 5632 5635 5638 5642 5644
5330 5331 5333 5335 5337 5339 5342 5345 5347 5351 5354 5357 5360 5364 5367 5371 5375 5378 5382 5386 5390 5393 5397 5401 5404 5408 5412 5416 5419 5423 5427 5431 5435 5439 5442 5446 5449 5452 5456 5461 5465 5469 5472 5476 5480 5485 5491 5497 5502 5507 5512 5516 5521 5524 5527 5531 5534 5539 5543 5547 5552 5556 5560 5564 5568 5572 5577 5581 5585 5589 5592 5595 5599 5602 5607 5610 5613 5616 5619 5623 5626 5629 5633 5636 5639 5642
5332 5333 5335 5337 5339 5341 5344 5346 5349 5352 5355 5358 5362 5365 5368 5372 5375 5379 5382 5386 5390 5393 5397 5401 5404 5408 5412 5415 5418 5422 5426 5430 5434 5438 5442 5445 5448 5452 5455 5460 5464 5468 5472 5475 5478 5483 5488 5494 5499 5504 5509 5514 5519 5522 5525 5528 5532 5535 5540 5544 5549 5553 5557 5562 5566 5571 5576 5579 5583 5586 5590 5593 5597 5601 5605 5608 5611 5614 5617 5621 5624 5627 5630 5634 5637 5640
5334 5336 5337 5339 5341 5343 5346 5348 5351 5354 5357 5360 5363 5366 5369 5372 5376 5379 5383 5386 5390 5393 5397 5400 5404 5407 5410 5413 5417 5421 5425 5429 5433 5437 5441 5444 5447 5451 5454 5458 5462 5467 5470 5473 5477 5481 5486 5491 5496 5502 5507 5512 5516 5520 5523 5527 5530 5533 5537 5542 5547 5551 5555 5559 5564 5568 5572 5576 5580 5584 5587 5591 5595 5598 5602 5605 5609 5612 5615 5619 5622 5625 5628 5631 5634 5637
5336 5338 5339 5341 5343 5345 5347 5350 5352 5355 5358 5361 5364 5367 5370 5373 5377 5380 5383 5387 5390 5393 5397 5400 5403 5407 5410 5413 5417 5420 5424 5427 5431 5435 5439 5443 5446 5450 5453 5457 5461 5465 5469 5472 5475 5479 5483 5488 5494 5499 5505 5510 5514 5518 5522 5526 5529 5532 5536 5540 5545 5549 5552 5557 5561 5565 5569 5573 5577 5581 5586 5590 5593 5596 5599 5603 5607 5611 5614 5617 5620 5622 5626 5628 5632 5634
5338 5340 5342 5343 5345 5347 5349 5351 5354 5357 5359 5362 5365 5368 5371 5374 5377 5380 5383 5387 5390 5393 5397 5400 5403 5406 5410 5413 5417 5420 5423 5427 5430 5434 5438 5442 5445 5449 5452 5456 5459 5463 5467 5471 5474 5477 5481 5485 5491 5497 5502 5507 5512 5517 5521 5525 5528 5531 5534 5538 5542 5547 5550 5555 5559 5563 5567 5571 5575 5579 5583 5587 5591 5594 5597 5601 5605 5610 5613 5617 5619 5621 5624 5626 5629 5632
5341 5342 5344 5345 5347 5349 5351 5353 5356 5358 5361 5363 5366 5369 5372 5375 5378 5381 5384 5387 5390 5393 5396 5399 5402 5405 5409 5412 5415 5419 5422 5426 5430 5434 5437 5441 5444 5448 5451 5455 5458 5462 5466 5470 5473 5476 5479 5483 5488 5494 5499 5504 5510 5515 5520 5523 5527 5530 5533 5537 5541 5545 5548 5552 5557 5560 5564 5568 5572 5576 5580 5584 5589 5592 5597 5600 5603 5607 5612 5616 5618 5620 5622 5625 5627 5630
5342 5344 5346 5347 5349 5351 5353 5355 5357 5360 5362 5365 5367 5370 5373 5376 5379 5382 5385 5387 5390 5393 5396 5399 5402 5405 5408 5411 5414 5417 5421 5425 5429 5433 5436 5440 5443 5447 5450 5453 5457 5461 5464 5468 5471 5474 5477 5482 5487 5492 5497 5503 5508 5514 5518 5522 5525 5528 5532 5535 5539 5543 5547 5550 5554 5558 5562 5565 5569 5573 5577 5582 5586 5590 5594 5597 5600 5604 5609 5613 5616 5618 5620 5623 5626 5628